Location: Carr Mill
(33.2054°N, 85.9439°W)
Time: 00:49:15
(UTC+00:00)

STARLINK-2732 - Pass Details

Date: 29 October 2021
Orbit: 545 x 549 km, 53.1° (Epoch: 30 November)

Event Time Altitude Azimuth Distance (km) Brightness Sun altitude
Exits shadow 09:13:30 13° 65° (ENE) 1,605 6.6 -35.3°
Drops below altitude 10° 09:14:05 10° 61° (ENE) 1,815 6.9 -35.2°
Sets 09:16:25 0° 53° (NE) 2,711 7.9 -34.7°
